Regional Weather Roundup
Issued by NWS Cleveland, OH

Home | Current Version | Previous Version | Graphics & Text | Print | Product List | Glossary On
Versions: 1 2 3 4 5 6 7 8 9 10 11 12 13 14 15 16 17 18 19 20 21 22 23 24 25 26 27 28 29 30 31 32 33 34 35 36 37 38 39 40 41 42 43 44 45 46 47 48 49 50
000
ASUS41 KCLE 271200
RWRCLE
OHIO REGIONAL WEATHER ROUNDUP
NATIONAL WEATHER SERVICE WILMINGTON, OH
800 AM EDT WED MAY 27 2015

NOTE: "FAIR" INDICATES FEW OR NO CLOUDS BELOW 12,000 FEET WITH NO
SIGNIFICANT WEATHER AND/OR OBSTRUCTIONS TO VISIBILITY.

OHZ001>008-015>018-024>027-034-035-043-044-271300-
   NORTHWEST OHIO

CITY           SKY/WX    TMP DP  RH WIND       PRES   REMARKS
DEFIANCE       SUNNY     68  61  78 SW15G21   30.01R
FINDLAY        SUNNY     69  63  81 S13       30.03R
TOLEDO EXPRESS SUNNY     67  61  81 SW12G18   29.99R
TOLEDO EXEC    SUNNY     69  62  78 SW13      30.01R
LIMA           MOSUNNY   67  62  84 SW12      30.05R
$$

OHZ009>014-019>023-028>033-038-089-271300-
   NORTHEAST OHIO

CITY           SKY/WX    TMP DP  RH WIND       PRES   REMARKS
CLE-HOPKINS    PTSUNNY   68  64  87 S9        30.07R
CLE-LAKEFRONT  RAIN      70  63  78 SW14      30.04R
CUY CO. ARPT   PTSUNNY   72  61  68 SW14      30.05R
LORAIN-ELYRIA  PTSUNNY   68  64  87 SW13      30.05R
ASHTABULA      PTSUNNY   67  64  90 S12       30.07R
AKRON-CANTON   PTSUNNY   68  63  84 SW13      30.09R
WOOSTER        NOT AVBL
MANSFIELD      PTSUNNY   67  63  87 SW14      30.08R
YOUNGSTOWN     PTSUNNY   67  63  87 SW8       30.09R
$$

OHZ042-051>053-060>062-070>072-077>081-271300-
  SOUTHWEST OHIO

CITY           SKY/WX    TMP DP  RH WIND       PRES   REMARKS
CINC-COVINGTON MOSUNNY   67  64  90 SW7       30.12R
CINC-LUNKEN    MOSUNNY   68  66  93 S5        30.12R
HAMILTON       MOSUNNY   69  65  86 VRB6      30.12R
DAYTON         NOT AVBL
WRIGHT-PAT AFB NOT AVBL
DAYTON GENERAL CLOUDY    67  64  90 SW8       30.10R
WILMINGTON     CLOUDY    67  63  87 SW14      30.11S
$$

OHZ036-037-039>041-045>050-054>059-063>069-073>076-082>088-271300-
  CENTRAL AND SOUTHEAST OHIO

CITY           SKY/WX    TMP DP  RH WIND       PRES   REMARKS
COLUMBUS       CLOUDY    67  65  93 S6        30.10R FOG
OSU AIRPORT    SUNNY     68  65  90 SW10      30.10R
BOLTON FIELD   PTSUNNY   70  66  88 SW9       30.11R
RICKENBACK AFB NOT AVBL
NEWARK         CLOUDY    69  65  86 SW10      30.10R
MARION         SUNNY     67  63  87 SW13      30.09R FOG
LANCASTER      CLOUDY    68  65  90 SW7       30.12R
ZANESVILLE     CLOUDY    67  64  90 SW6       30.12R
NEW PHILLY     NOT AVBL
$$



USA.gov is the U.S. government's official web portal to all federal, state and local government web resources and services.